Manistique, MI

4:45 AM EST on January 17, 2018 (GMT -0500)
Schoolcraft County

Weather History for KISQ - June, 2013

Change the Weather History Date:

Saturday, June 1, 2013

  Actual Average Record
Temperature  
Mean Temperature 55 °F -  
Max Temperature 64 °F 64 °F 81 °F (1967)
Min Temperature 46 °F 43 °F 31 °F (1966)
Degree Days  
Heating Degree Days 10    
Growing Degree Days 5 (Base 50)    
Moisture  
Dew Point 52 °F    
Average Humidity 91    
Maximum Humidity 94    
Minimum Humidity 82    
Precipitation  
Precipitation 0.00 in - - ()
Sea Level Pressure  
Sea Level Pressure 29.67 in    
Wind  
Wind Speed 7 mph (South)    
Max Wind Speed 13 mph    
Max Gust Speed 18 mph    
Visibility 4 miles    
Events Fog , Rain    
Averages and records for this station are not official NWS values.
T = Trace of Precipitation, MM = Missing Value Source: NWS Daily Summary

Daily Weather History Graph

Daily Weather History Graph

Search for Another Location

Airport or City:

Trip Planner

Search our weather history database for the weather conditions in past years. The results will help you decide how hot, cold, wet, or windy it might be!

Date:

Astronomy

Jun. 01, 2013 Rise Set
Actual Time 5:57 AM EDT 9:28 PM EDT
Civil Twilight 5:20 AM EDT 10:05 PM EDT
Nautical Twilight 4:30 AM EDT 10:55 PM EDT
Astronomical Twilight 3:26 AM EDT 12:00 AM EDT
Moon 2:14 AM EDT (6/1) 2:37 PM EDT (6/1)
Length of Visible Light 16h 45m
Length of Day
15h 30m
Last Quarter, 41% of the Moon is Illuminated
Jun 1
Last Quarter
Jun 8
New
Jun 16
First Quarter
Jun 23
Full
Jun 30
Last Quarter

Hourly Weather History & Observations

Time (EDT) Temp. Windchill Dew Point Humidity Pressure Visibility Wind Dir Wind Speed Gust Speed Precip Events Conditions
12:15 AM 55.4 °F - 51.8 °F 88% 29.74 in 0.2 mi SSW 9.2 mph - N/A Fog Fog
12:35 AM 53.6 °F - 51.8 °F 94% 29.75 in 0.2 mi SW 5.8 mph - N/A Fog Fog
12:54 AM 53.6 °F - 51.8 °F 94% 29.75 in 0.2 mi SSW 5.8 mph - N/A Fog Fog
1:15 AM 53.6 °F - 51.8 °F 94% 29.74 in 0.2 mi South 9.2 mph - N/A Fog Fog
1:34 AM 53.6 °F - 51.8 °F 94% 29.74 in 0.2 mi SSW 9.2 mph - N/A Fog Fog
1:54 AM 53.6 °F - 51.8 °F 94% 29.74 in 0.2 mi SSW 4.6 mph - N/A   Drizzle
2:14 AM 53.6 °F - 51.8 °F 94% 29.73 in 0.2 mi South 6.9 mph - N/A   Drizzle
2:34 AM 53.6 °F - 51.8 °F 94% 29.73 in 0.2 mi SSE 6.9 mph - N/A   Drizzle
2:55 AM 53.6 °F - 51.8 °F 94% 29.71 in 0.2 mi South 6.9 mph - N/A   Drizzle
3:14 AM 53.6 °F - 51.8 °F 94% 29.70 in 0.5 mi South 6.9 mph - N/A   Light Drizzle
3:35 AM 53.6 °F - 51.8 °F 94% 29.69 in 0.2 mi South 6.9 mph - N/A Fog Fog
3:55 AM 53.6 °F - 51.8 °F 94% 29.68 in 0.2 mi South 8.1 mph - N/A   Drizzle
4:14 AM 53.6 °F - 51.8 °F 94% 29.68 in 0.5 mi South 8.1 mph - N/A   Light Drizzle
4:35 AM 53.6 °F - 51.8 °F 94% 29.69 in 0.2 mi Calm Calm - N/A Fog Fog
4:55 AM 53.6 °F - 51.8 °F 94% 29.67 in 0.2 mi SE 4.6 mph - N/A Fog Fog
5:14 AM 53.6 °F - 51.8 °F 94% 29.66 in 0.2 mi SE 5.8 mph - N/A Fog Fog
5:35 AM 51.8 °F - 50.0 °F 94% 29.67 in 0.2 mi ESE 3.5 mph - N/A Fog Fog
5:54 AM 51.8 °F - 50.0 °F 94% 29.65 in 0.2 mi ESE 3.5 mph - N/A Fog Fog
6:14 AM 51.8 °F - 50.0 °F 94% 29.65 in 0.2 mi Calm Calm - N/A Fog Fog
6:35 AM 51.8 °F - 50.0 °F 94% 29.65 in 0.2 mi ESE 4.6 mph - N/A Fog Fog
6:54 AM 51.8 °F - 50.0 °F 94% 29.65 in 0.2 mi ESE 8.1 mph - N/A Fog Fog
7:15 AM 51.8 °F - 50.0 °F 94% 29.67 in 0.2 mi SSE 5.8 mph - N/A Fog Fog
7:34 AM 51.8 °F - 50.0 °F 94% 29.66 in 0.5 mi SSE 5.8 mph - N/A Fog Fog
7:55 AM 51.8 °F - 50.0 °F 94% 29.66 in 0.2 mi SSE 5.8 mph - N/A Fog Fog
8:15 AM 51.8 °F - 50.0 °F 94% 29.66 in 0.5 mi Calm Calm - N/A Fog Fog
8:34 AM 51.8 °F - 48.2 °F 88% 29.67 in 0.8 mi SE 5.8 mph - N/A   Overcast
8:55 AM 51.8 °F - 48.2 °F 88% 29.67 in 1.5 mi SSE 4.6 mph - N/A   Overcast
9:15 AM 51.8 °F - 48.2 °F 88% 29.67 in 2.0 mi SSE 4.6 mph - N/A   Overcast
9:34 AM 51.8 °F - 50.0 °F 94% 29.67 in 4.0 mi SSW 4.6 mph - N/A   Overcast
9:55 AM 51.8 °F - 48.2 °F 88% 29.67 in 10.0 mi South 9.2 mph - N/A   Overcast
10:15 AM 51.8 °F - 48.2 °F 88% 29.67 in 10.0 mi SSW 10.4 mph - N/A   Overcast
10:34 AM 53.6 °F - 51.8 °F 94% 29.66 in 7.0 mi SSW 6.9 mph - N/A   Overcast
10:55 AM 55.4 °F - 53.6 °F 94% 29.66 in 10.0 mi South 5.8 mph - N/A   Mostly Cloudy
11:14 AM 55.4 °F - 53.6 °F 94% 29.66 in 10.0 mi Calm Calm - N/A   Overcast
11:35 AM 60.8 °F - 57.2 °F 88% 29.66 in 10.0 mi South 4.6 mph - N/A   Mostly Cloudy
11:55 AM 60.8 °F - 55.4 °F 82% 29.66 in 10.0 mi South 6.9 mph - N/A   Clear
12:14 PM 59.0 °F - 53.6 °F 82% 29.66 in 10.0 mi SSW 6.9 mph - N/A   Mostly Cloudy
12:35 PM 62.6 °F - 57.2 °F 82% 29.67 in 7.0 mi SSW 6.9 mph - N/A   Mostly Cloudy
12:55 PM 62.6 °F - 57.2 °F 82% 29.66 in 5.0 mi South 8.1 mph - N/A   Mostly Cloudy
1:14 PM 64.4 °F - 59.0 °F 83% 29.66 in 10.0 mi South 9.2 mph - N/A   Scattered Clouds
1:35 PM 64.4 °F - 59.0 °F 83% 29.66 in 10.0 mi South 12.7 mph - N/A   Clear
1:55 PM 57.2 °F - 53.6 °F 88% 29.66 in 1.8 mi South 10.4 mph 17.3 mph N/A   Mostly Cloudy
2:14 PM 57.2 °F - 53.6 °F 88% 29.65 in 1.2 mi South 11.5 mph - N/A   Overcast
2:34 PM 55.4 °F - 53.6 °F 94% 29.66 in 3.0 mi SSE 9.2 mph - N/A   Overcast
2:54 PM 53.6 °F - 51.8 °F 94% 29.66 in 1.0 mi SE 8.1 mph - N/A   Overcast
3:15 PM 53.6 °F - 50.0 °F 88% 29.66 in 0.2 mi South 10.4 mph - N/A Fog Fog
3:34 PM 51.8 °F - 50.0 °F 94% 29.66 in 0.2 mi SSE 10.4 mph - N/A Fog Fog
3:54 PM 51.8 °F - 48.2 °F 88% 29.66 in 0.2 mi South 9.2 mph - N/A Fog Fog
4:15 PM 51.8 °F - 50.0 °F 94% 29.67 in 0.2 mi South 8.1 mph - N/A Fog Fog
4:34 PM 51.8 °F - 48.2 °F 88% 29.67 in 0.2 mi South 9.2 mph - N/A Fog Fog
4:55 PM 53.6 °F - 51.8 °F 94% 29.71 in 0.2 mi SW 9.2 mph 18.4 mph N/A Rain Heavy Rain
5:15 PM 57.2 °F - 55.4 °F 94% 29.68 in 5.0 mi NW 11.5 mph 18.4 mph N/A Rain Heavy Rain
5:34 PM 59.0 °F - 55.4 °F 88% 29.67 in 10.0 mi Calm Calm - N/A Rain Rain
5:55 PM 59.0 °F - 55.4 °F 88% 29.68 in 10.0 mi SE 6.9 mph - N/A Rain Rain
6:15 PM 57.2 °F - 55.4 °F 94% 29.67 in 7.0 mi ESE 6.9 mph - N/A Rain Rain
6:34 PM 57.2 °F - 55.4 °F 94% 29.64 in 7.0 mi East 6.9 mph - N/A Rain Rain
6:55 PM 59.0 °F - 55.4 °F 88% 29.64 in 10.0 mi ESE 4.6 mph - N/A   Light Drizzle
7:14 PM 59.0 °F - 55.4 °F 88% 29.64 in 10.0 mi ESE 5.8 mph - N/A Rain Light Rain
7:34 PM 59.0 °F - 55.4 °F 88% 29.65 in 10.0 mi WNW 8.1 mph - N/A   Overcast
7:55 PM 59.0 °F - 57.2 °F 94% 29.66 in 4.0 mi Calm Calm - N/A Rain Heavy Rain
8:14 PM 59.0 °F - 55.4 °F 88% 29.65 in 7.0 mi South 5.8 mph - N/A Rain Rain
8:35 PM 57.2 °F - 55.4 °F 94% 29.67 in 7.0 mi SW 3.5 mph - N/A Rain Rain
8:55 PM 57.2 °F - 55.4 °F 94% 29.65 in 4.0 mi South 5.8 mph - N/A Rain Rain
9:14 PM 55.4 °F - 53.6 °F 94% 29.64 in 7.0 mi Calm Calm - N/A Rain Light Rain
9:35 PM 55.4 °F - 53.6 °F 94% 29.65 in 10.0 mi SW 4.6 mph - N/A Rain Light Rain
9:55 PM 55.4 °F - 53.6 °F 94% 29.65 in 7.0 mi Calm Calm - N/A   Overcast
10:14 PM 57.2 °F - 55.4 °F 94% 29.64 in 5.0 mi SSW 3.5 mph - N/A   Overcast
10:35 PM 55.4 °F - 53.6 °F 94% 29.66 in 7.0 mi NW 10.4 mph 16.1 mph N/A   Overcast
10:54 PM 51.8 °F - 48.2 °F 88% 29.68 in 10.0 mi NW 11.5 mph - N/A   Overcast
11:15 PM 48.2 °F - 46.4 °F 93% 29.68 in 10.0 mi NW 11.5 mph 18.4 mph N/A   Overcast
11:35 PM 46.4 °F 41.5 °F 44.6 °F 93% 29.69 in 4.0 mi NNW 10.4 mph - N/A   Overcast
11:54 PM 46.4 °F 40.7 °F 44.6 °F 93% 29.68 in 3.0 mi NW 12.7 mph - N/A   Overcast